contact:dominique.lefevre@mio.osupytheas.fr, maurice.libes@osupytheas.fr, didier.mallarino@osupytheas.fr
Project:EMSO http://www.emso-fr.org/EMSO-France
Depth: 2436.0 m
Title:EMSO Ligure Ouest : Data MII capteur CSTAR
DateTime,Latitude,Longitude,Instrument_Serial,Reference_Counts,Signal_Counts,Corrected_Signal_raw_counts,Calculated_Beam_c_inverse_meters,Internal_thermistor_counts
DateTime,Latitude,Longitude,Instrument_Serial,Reference_Counts,Signal_Counts,Corrected_Signal_raw_counts,Calculated_Beam_c_inverse_meters,Internal_thermistor_counts
2019-11-21T00:00:42,42.805,6.029,CST-1368DR,7323,10264,15310,0.079,551
2019-11-21T00:03:44,42.805,6.029,CST-1368DR,7322,10262,15310,0.079,551
2019-11-21T00:06:45,42.805,6.029,CST-1368DR,7322,10262,15310,0.079,551
2019-11-21T00:09:47,42.805,6.029,CST-1368DR,7323,10262,15308,0.080,551
2019-11-21T00:12:49,42.805,6.029,CST-1368DR,7322,10261,15309,0.079,551
2019-11-21T00:15:50,42.805,6.029,CST-1368DR,7322,10262,15309,0.079,551
2019-11-21T00:18:52,42.805,6.029,CST-1368DR,7322,10262,15310,0.079,550
2019-11-21T00:21:54,42.805,6.029,CST-1368DR,7322,10262,15309,0.079,551
2019-11-21T00:24:55,42.805,6.029,CST-1368DR,7322,10263,15311,0.079,551
2019-11-21T00:27:57,42.805,6.029,CST-1368DR,7322,10255,15299,0.082,551
2019-11-21T00:30:59,42.805,6.029,CST-1368DR,7322,10261,15309,0.079,551
2019-11-21T00:34:00,42.805,6.029,CST-1368DR,7322,10262,15310,0.079,550
2019-11-21T00:37:02,42.805,6.029,CST-1368DR,7322,10263,15311,0.079,551
2019-11-21T00:40:04,42.805,6.029,CST-1368DR,7322,10263,15312,0.079,550
2019-11-21T00:43:06,42.805,6.029,CST-1368DR,7322,10262,15310,0.079,551
2019-11-21T00:46:07,42.805,6.029,CST-1368DR,7322,10261,15309,0.079,551
2019-11-21T00:49:09,42.805,6.029,CST-1368DR,7322,10262,15309,0.079,550
2019-11-21T00:52:11,42.805,6.029,CST-1368DR,7322,10262,15310,0.079,550
2019-11-21T00:55:13,42.805,6.029,CST-1368DR,7322,10262,15310,0.079,551
2019-11-21T00:58:14,42.805,6.029,CST-1368DR,7322,10262,15309,0.079,551
2019-11-21T01:01:16,42.805,6.029,CST-1368DR,7322,10263,15311,0.079,551
2019-11-21T01:04:18,42.805,6.029,CST-1368DR,7322,10262,15310,0.079,551
2019-11-21T01:07:19,42.805,6.029,CST-1368DR,7322,10262,15310,0.079,551
2019-11-21T01:10:21,42.805,6.029,CST-1368DR,7322,10262,15309,0.079,551
2019-11-21T01:13:23,42.805,6.029,CST-1368DR,7322,10261,15309,0.079,551
2019-11-21T01:16:24,42.805,6.029,CST-1368DR,7322,10262,15310,0.079,551
2019-11-21T01:19:26,42.805,6.029,CST-1368DR,7322,10261,15309,0.079,551
2019-11-21T01:22:28,42.805,6.029,CST-1368DR,7322,10264,15312,0.079,551
2019-11-21T01:25:29,42.805,6.029,CST-1368DR,7322,10262,15310,0.079,551
2019-11-21T01:28:31,42.805,6.029,CST-1368DR,7322,10263,15312,0.079,551
2019-11-21T01:31:32,42.805,6.029,CST-1368DR,7322,10263,15312,0.079,551
2019-11-21T01:34:34,42.805,6.029,CST-1368DR,7322,10262,15310,0.079,551
2019-11-21T01:37:36,42.805,6.029,CST-1368DR,7322,10262,15310,0.079,551
2019-11-21T01:40:37,42.805,6.029,CST-1368DR,7322,10262,15310,0.079,551
2019-11-21T01:43:39,42.805,6.029,CST-1368DR,7322,10262,15309,0.079,551
2019-11-21T01:46:41,42.805,6.029,CST-1368DR,7322,10262,15310,0.079,551
2019-11-21T01:49:43,42.805,6.029,CST-1368DR,7322,10262,15310,0.079,551
2019-11-21T01:52:44,42.805,6.029,CST-1368DR,7322,10263,15312,0.079,551
2019-11-21T01:55:46,42.805,6.029,CST-1368DR,7322,10262,15310,0.079,551
2019-11-21T01:58:48,42.805,6.029,CST-1368DR,7322,10262,15310,0.079,551
2019-11-21T02:01:49,42.805,6.029,CST-1368DR,7322,10262,15310,0.079,551
2019-11-21T02:04:51,42.805,6.029,CST-1368DR,7322,10262,15310,0.079,551
2019-11-21T02:07:53,42.805,6.029,CST-1368DR,7322,10262,15310,0.079,551
2019-11-21T02:10:54,42.805,6.029,CST-1368DR,7322,10262,15310,0.079,551
2019-11-21T02:13:56,42.805,6.029,CST-1368DR,7322,10262,15310,0.079,551
2019-11-21T02:16:58,42.805,6.029,CST-1368DR,7322,10262,15309,0.079,551
2019-11-21T02:19:59,42.805,6.029,CST-1368DR,7322,10261,15308,0.080,551
2019-11-21T02:23:01,42.805,6.029,CST-1368DR,7322,10262,15309,0.079,551
2019-11-21T02:26:02,42.805,6.029,CST-1368DR,7322,10261,15309,0.079,551
2019-11-21T02:29:04,42.805,6.029,CST-1368DR,7322,10260,15307,0.080,551
2019-11-21T02:32:06,42.805,6.029,CST-1368DR,7322,10261,15309,0.079,550
2019-11-21T02:35:07,42.805,6.029,CST-1368DR,7322,10262,15309,0.079,551
2019-11-21T02:38:09,42.805,6.029,CST-1368DR,7322,10259,15305,0.080,551
2019-11-21T02:41:11,42.805,6.029,CST-1368DR,7322,10262,15309,0.079,551
2019-11-21T02:44:12,42.805,6.029,CST-1368DR,7321,10262,15311,0.079,551
2019-11-21T02:47:14,42.805,6.029,CST-1368DR,7322,10261,15309,0.079,551
2019-11-21T02:50:16,42.805,6.029,CST-1368DR,7322,10262,15310,0.079,551
2019-11-21T02:53:17,42.805,6.029,CST-1368DR,7321,10261,15309,0.079,550
2019-11-21T02:56:19,42.805,6.029,CST-1368DR,7321,10258,15306,0.080,551
2019-11-21T02:59:21,42.805,6.029,CST-1368DR,7321,10262,15311,0.079,551
2019-11-21T03:02:22,42.805,6.029,CST-1368DR,7321,10261,15311,0.079,551
2019-11-21T03:05:24,42.805,6.029,CST-1368DR,7321,10261,15311,0.079,550
2019-11-21T03:08:26,42.805,6.029,CST-1368DR,7321,10261,15310,0.079,551
2019-11-21T03:11:27,42.805,6.029,CST-1368DR,7321,10261,15311,0.079,551
2019-11-21T03:14:29,42.805,6.029,CST-1368DR,7321,10260,15309,0.079,551
2019-11-21T03:17:31,42.805,6.029,CST-1368DR,7321,10261,15310,0.079,550
2019-11-21T03:20:32,42.805,6.029,CST-1368DR,7321,10260,15309,0.079,551
2019-11-21T03:23:34,42.805,6.029,CST-1368DR,7321,10260,15308,0.080,551
2019-11-21T03:26:36,42.805,6.029,CST-1368DR,7321,10262,15311,0.079,551
2019-11-21T03:29:37,42.805,6.029,CST-1368DR,7321,10260,15308,0.080,551
2019-11-21T03:32:39,42.805,6.029,CST-1368DR,7321,10261,15311,0.079,551
2019-11-21T03:35:41,42.805,6.029,CST-1368DR,7321,10261,15310,0.079,551
2019-11-21T03:38:42,42.805,6.029,CST-1368DR,7321,10261,15310,0.079,551
2019-11-21T03:41:44,42.805,6.029,CST-1368DR,7321,10260,15308,0.080,550
2019-11-21T03:44:46,42.805,6.029,CST-1368DR,7321,10261,15310,0.079,551
2019-11-21T03:47:47,42.805,6.029,CST-1368DR,7321,10261,15310,0.079,551
2019-11-21T03:50:49,42.805,6.029,CST-1368DR,7321,10260,15309,0.079,551
2019-11-21T03:53:51,42.805,6.029,CST-1368DR,7321,10261,15310,0.079,551
2019-11-21T03:56:52,42.805,6.029,CST-1368DR,7321,10260,15309,0.079,551
2019-11-21T03:59:54,42.805,6.029,CST-1368DR,7321,10262,15311,0.079,550
2019-11-21T04:02:56,42.805,6.029,CST-1368DR,7321,10262,15311,0.079,551
2019-11-21T04:05:57,42.805,6.029,CST-1368DR,7321,10261,15311,0.079,551
2019-11-21T04:08:59,42.805,6.029,CST-1368DR,7321,10260,15308,0.080,551
2019-11-21T04:12:01,42.805,6.029,CST-1368DR,7321,10261,15311,0.079,551
2019-11-21T04:15:02,42.805,6.029,CST-1368DR,7321,10261,15310,0.079,550
2019-11-21T04:18:04,42.805,6.029,CST-1368DR,7321,10261,15311,0.079,551
2019-11-21T04:21:06,42.805,6.029,CST-1368DR,7321,10262,15312,0.079,551
2019-11-21T04:24:07,42.805,6.029,CST-1368DR,7321,10262,15311,0.079,551
2019-11-21T04:27:09,42.805,6.029,CST-1368DR,7321,10262,15311,0.079,551
2019-11-21T04:30:11,42.805,6.029,CST-1368DR,7321,10261,15311,0.079,551
2019-11-21T04:33:12,42.805,6.029,CST-1368DR,7321,10262,15311,0.079,551
2019-11-21T04:36:14,42.805,6.029,CST-1368DR,7321,10262,15312,0.079,551
2019-11-21T04:39:16,42.805,6.029,CST-1368DR,7321,10262,15311,0.079,551
2019-11-21T04:42:17,42.805,6.029,CST-1368DR,7321,10262,15311,0.079,551
2019-11-21T04:45:19,42.805,6.029,CST-1368DR,7321,10262,15311,0.079,551
2019-11-21T04:48:21,42.805,6.029,CST-1368DR,7321,10262,15311,0.079,551
2019-11-21T04:51:22,42.805,6.029,CST-1368DR,7321,10262,15311,0.079,551
2019-11-21T04:54:24,42.805,6.029,CST-1368DR,7321,10261,15311,0.079,551
2019-11-21T04:57:26,42.805,6.029,CST-1368DR,7321,10262,15311,0.079,551
2019-11-21T05:00:27,42.805,6.029,CST-1368DR,7321,10262,15311,0.079,551
2019-11-21T05:03:29,42.805,6.029,CST-1368DR,7321,10262,15311,0.079,551
2019-11-21T05:06:31,42.805,6.029,CST-1368DR,7321,10262,15311,0.079,551
2019-11-21T05:09:32,42.805,6.029,CST-1368DR,7321,10262,15311,0.079,551
2019-11-21T05:12:34,42.805,6.029,CST-1368DR,7321,10260,15309,0.079,551
2019-11-21T05:15:36,42.805,6.029,CST-1368DR,7321,10261,15310,0.079,551
2019-11-21T05:18:37,42.805,6.029,CST-1368DR,7321,10261,15310,0.079,551
2019-11-21T05:21:39,42.805,6.029,CST-1368DR,7321,10260,15309,0.079,551
2019-11-21T05:24:41,42.805,6.029,CST-1368DR,7321,10261,15309,0.079,550
2019-11-21T05:27:42,42.805,6.029,CST-1368DR,7321,10261,15311,0.079,551
2019-11-21T05:30:44,42.805,6.029,CST-1368DR,7321,10261,15310,0.079,551
2019-11-21T05:33:46,42.805,6.029,CST-1368DR,7321,10261,15310,0.079,551
2019-11-21T05:36:47,42.805,6.029,CST-1368DR,7321,10259,15307,0.080,551
2019-11-21T05:39:49,42.805,6.029,CST-1368DR,7321,10260,15309,0.079,551
2019-11-21T05:42:51,42.805,6.029,CST-1368DR,7320,10261,15312,0.079,551
2019-11-21T05:45:52,42.805,6.029,CST-1368DR,7320,10261,15312,0.079,551
2019-11-21T05:48:54,42.805,6.029,CST-1368DR,7320,10261,15311,0.079,550
2019-11-21T05:51:56,42.805,6.029,CST-1368DR,7320,10260,15311,0.079,551
2019-11-21T05:54:57,42.805,6.029,CST-1368DR,7320,10261,15311,0.079,551
2019-11-21T05:57:59,42.805,6.029,CST-1368DR,7320,10260,15310,0.079,551
2019-11-21T06:01:01,42.805,6.029,CST-1368DR,7320,10260,15310,0.079,551
2019-11-21T06:04:02,42.805,6.029,CST-1368DR,7320,10260,15310,0.079,551
2019-11-21T06:07:04,42.805,6.029,CST-1368DR,7320,10260,15311,0.079,551
2019-11-21T06:10:06,42.805,6.029,CST-1368DR,7320,10260,15310,0.079,551
2019-11-21T06:13:07,42.805,6.029,CST-1368DR,7320,10260,15311,0.079,551
2019-11-21T06:16:09,42.805,6.029,CST-1368DR,7320,10261,15312,0.079,551
2019-11-21T06:19:11,42.805,6.029,CST-1368DR,7320,10259,15309,0.079,551
2019-11-21T06:22:12,42.805,6.029,CST-1368DR,7320,10261,15312,0.079,551
2019-11-21T06:25:14,42.805,6.029,CST-1368DR,7320,10261,15311,0.079,551
2019-11-21T06:28:16,42.805,6.029,CST-1368DR,7320,10260,15311,0.079,551
2019-11-21T06:31:17,42.805,6.029,CST-1368DR,7320,10260,15310,0.079,551
2019-11-21T06:34:19,42.805,6.029,CST-1368DR,7320,10261,15312,0.079,551
2019-11-21T06:37:21,42.805,6.029,CST-1368DR,7320,10260,15310,0.079,551
2019-11-21T06:40:22,42.805,6.029,CST-1368DR,7320,10260,15311,0.079,551
2019-11-21T06:43:24,42.805,6.029,CST-1368DR,7320,10261,15311,0.079,551
2019-11-21T06:46:26,42.805,6.029,CST-1368DR,7320,10261,15312,0.079,551
2019-11-21T06:49:27,42.805,6.029,CST-1368DR,7320,10260,15310,0.079,550
2019-11-21T06:52:29,42.805,6.029,CST-1368DR,7320,10259,15309,0.079,551
2019-11-21T06:55:31,42.805,6.029,CST-1368DR,7320,10261,15313,0.078,551
2019-11-21T06:58:33,42.805,6.029,CST-1368DR,7320,10261,15313,0.078,551
2019-11-21T07:01:34,42.805,6.029,CST-1368DR,7320,10261,15311,0.079,551
2019-11-21T07:04:36,42.805,6.029,CST-1368DR,7320,10261,15311,0.079,551
2019-11-21T07:07:38,42.805,6.029,CST-1368DR,7320,10260,15310,0.079,551
2019-11-21T07:10:39,42.805,6.029,CST-1368DR,7320,10261,15311,0.079,551
2019-11-21T07:13:41,42.805,6.029,CST-1368DR,7320,10260,15311,0.079,551
2019-11-21T07:16:43,42.805,6.029,CST-1368DR,7320,10259,15309,0.079,551
2019-11-21T07:19:44,42.805,6.029,CST-1368DR,7320,10260,15311,0.079,551
2019-11-21T07:22:46,42.805,6.029,CST-1368DR,7320,10260,15310,0.079,551
2019-11-21T07:25:48,42.805,6.029,CST-1368DR,7320,10260,15310,0.079,551
2019-11-21T07:28:49,42.805,6.029,CST-1368DR,7320,10260,15311,0.079,551
2019-11-21T07:31:51,42.805,6.029,CST-1368DR,7320,10261,15311,0.079,551
2019-11-21T07:34:53,42.805,6.029,CST-1368DR,7320,10260,15311,0.079,551
2019-11-21T07:37:54,42.805,6.029,CST-1368DR,7320,10261,15311,0.079,551
2019-11-21T07:40:56,42.805,6.029,CST-1368DR,7320,10260,15310,0.079,551
2019-11-21T07:43:58,42.805,6.029,CST-1368DR,7320,10260,15311,0.079,551
2019-11-21T07:46:59,42.805,6.029,CST-1368DR,7320,10261,15311,0.079,551
2019-11-21T07:50:01,42.805,6.029,CST-1368DR,7320,10260,15311,0.079,551
2019-11-21T07:53:03,42.805,6.029,CST-1368DR,7320,10261,15312,0.079,551
2019-11-21T07:56:04,42.805,6.029,CST-1368DR,7320,10259,15309,0.079,551
2019-11-21T07:59:06,42.805,6.029,CST-1368DR,7320,10260,15310,0.079,551
2019-11-21T08:02:08,42.805,6.029,CST-1368DR,7320,10260,15310,0.079,551
2019-11-21T08:05:09,42.805,6.029,CST-1368DR,7320,10259,15309,0.079,551
2019-11-21T08:08:11,42.805,6.029,CST-1368DR,7320,10260,15310,0.079,551
2019-11-21T08:11:12,42.805,6.029,CST-1368DR,7320,10259,15309,0.079,551
2019-11-21T08:14:14,42.805,6.029,CST-1368DR,7320,10253,15300,0.082,551
2019-11-21T08:17:16,42.805,6.029,CST-1368DR,7320,10260,15311,0.079,551
2019-11-21T08:20:18,42.805,6.029,CST-1368DR,7320,10259,15308,0.080,551
2019-11-21T08:23:19,42.805,6.029,CST-1368DR,7320,10259,15309,0.079,551
2019-11-21T08:26:21,42.805,6.029,CST-1368DR,7320,10259,15309,0.079,551
2019-11-21T08:29:22,42.805,6.029,CST-1368DR,7320,10260,15310,0.079,551
2019-11-21T08:32:24,42.805,6.029,CST-1368DR,7320,10259,15309,0.079,551
2019-11-21T08:35:26,42.805,6.029,CST-1368DR,7320,10258,15308,0.080,551
2019-11-21T08:38:27,42.805,6.029,CST-1368DR,7320,10260,15310,0.079,551
2019-11-21T08:41:29,42.805,6.029,CST-1368DR,7320,10257,15306,0.080,551
2019-11-21T08:44:31,42.805,6.029,CST-1368DR,7320,10259,15308,0.080,551
2019-11-21T08:47:32,42.805,6.029,CST-1368DR,7320,10259,15309,0.079,551
2019-11-21T08:50:34,42.805,6.029,CST-1368DR,7320,10259,15308,0.080,551
2019-11-21T08:53:36,42.805,6.029,CST-1368DR,7320,10259,15309,0.079,550
2019-11-21T08:56:37,42.805,6.029,CST-1368DR,7320,10259,15308,0.080,551
2019-11-21T08:59:39,42.805,6.029,CST-1368DR,7320,10251,15297,0.083,551
2019-11-21T09:02:41,42.805,6.029,CST-1368DR,7320,10258,15307,0.080,551
2019-11-21T09:05:42,42.805,6.029,CST-1368DR,7320,10259,15309,0.079,551
2019-11-21T09:08:44,42.805,6.029,CST-1368DR,7320,10259,15308,0.080,551
2019-11-21T09:11:46,42.805,6.029,CST-1368DR,7320,10259,15308,0.080,551
2019-11-21T09:14:48,42.805,6.029,CST-1368DR,7320,10259,15309,0.079,551
2019-11-21T09:17:49,42.805,6.029,CST-1368DR,7320,10259,15308,0.080,550
2019-11-21T09:20:51,42.805,6.029,CST-1368DR,7320,10255,15303,0.081,551
2019-11-21T09:23:53,42.805,6.029,CST-1368DR,7320,10258,15308,0.080,551
2019-11-21T09:26:54,42.805,6.029,CST-1368DR,7320,10257,15306,0.080,551
2019-11-21T09:29:56,42.805,6.029,CST-1368DR,7320,10259,15308,0.080,551
2019-11-21T09:32:58,42.805,6.029,CST-1368DR,7319,10258,15310,0.079,551
2019-11-21T09:35:59,42.805,6.029,CST-1368DR,7319,10258,15310,0.079,551
2019-11-21T09:39:01,42.805,6.029,CST-1368DR,7319,10259,15311,0.079,551
2019-11-21T09:42:03,42.805,6.029,CST-1368DR,7319,10258,15309,0.079,551
2019-11-21T09:45:04,42.805,6.029,CST-1368DR,7319,10258,15310,0.079,550
2019-11-21T09:48:06,42.805,6.029,CST-1368DR,7319,10259,15311,0.079,551
2019-11-21T09:51:07,42.805,6.029,CST-1368DR,7319,10259,15311,0.079,551
2019-11-21T09:54:09,42.805,6.029,CST-1368DR,7319,10259,15311,0.079,551
2019-11-21T09:57:11,42.805,6.029,CST-1368DR,7319,10260,15312,0.079,551
2019-11-21T10:00:12,42.805,6.029,CST-1368DR,7319,10258,15310,0.079,551
2019-11-21T10:03:14,42.805,6.029,CST-1368DR,7319,10258,15310,0.079,551
2019-11-21T10:06:16,42.805,6.029,CST-1368DR,7319,10258,15310,0.079,551
2019-11-21T10:09:17,42.805,6.029,CST-1368DR,7319,10259,15310,0.079,551
2019-11-21T10:12:19,42.805,6.029,CST-1368DR,7319,10258,15309,0.079,551
2019-11-21T10:15:21,42.805,6.029,CST-1368DR,7319,10257,15308,0.080,551
2019-11-21T10:18:22,42.805,6.029,CST-1368DR,7319,10258,15309,0.079,551
2019-11-21T10:21:24,42.805,6.029,CST-1368DR,7319,10258,15309,0.079,551
2019-11-21T10:24:26,42.805,6.029,CST-1368DR,7319,10258,15310,0.079,551
2019-11-21T10:27:27,42.805,6.029,CST-1368DR,7319,10257,15309,0.079,551
2019-11-21T10:30:29,42.805,6.029,CST-1368DR,7319,10258,15310,0.079,551
2019-11-21T10:33:31,42.805,6.029,CST-1368DR,7319,10257,15308,0.080,551
2019-11-21T10:36:32,42.805,6.029,CST-1368DR,7319,10258,15310,0.079,551
2019-11-21T10:39:34,42.805,6.029,CST-1368DR,7319,10258,15310,0.079,551
2019-11-21T10:42:36,42.805,6.029,CST-1368DR,7319,10259,15311,0.079,551
2019-11-21T10:45:37,42.805,6.029,CST-1368DR,7319,10258,15310,0.079,551
2019-11-21T10:48:39,42.805,6.029,CST-1368DR,7319,10258,15310,0.079,551
2019-11-21T10:51:41,42.805,6.029,CST-1368DR,7319,10258,15310,0.079,551
2019-11-21T10:54:43,42.805,6.029,CST-1368DR,7319,10258,15310,0.079,551
2019-11-21T10:57:44,42.805,6.029,CST-1368DR,7319,10257,15309,0.079,551
2019-11-21T11:00:46,42.805,6.029,CST-1368DR,7319,10255,15306,0.080,551
2019-11-21T11:03:48,42.805,6.029,CST-1368DR,7319,10258,15310,0.079,551
2019-11-21T11:06:49,42.805,6.029,CST-1368DR,7319,10257,15308,0.080,551
2019-11-21T11:09:51,42.805,6.029,CST-1368DR,7319,10257,15309,0.079,551
2019-11-21T11:12:52,42.805,6.029,CST-1368DR,7319,10257,15308,0.080,551
2019-11-21T11:15:54,42.805,6.029,CST-1368DR,7319,10257,15308,0.080,551
2019-11-21T11:18:56,42.805,6.029,CST-1368DR,7319,10256,15307,0.080,551
2019-11-21T11:21:57,42.805,6.029,CST-1368DR,7319,10255,15304,0.081,551
2019-11-21T11:24:59,42.805,6.029,CST-1368DR,7319,10257,15309,0.079,551
2019-11-21T11:28:01,42.805,6.029,CST-1368DR,7319,10257,15309,0.079,551
2019-11-21T11:31:02,42.805,6.029,CST-1368DR,7319,10257,15308,0.080,551
2019-11-21T11:34:04,42.805,6.029,CST-1368DR,7319,10257,15309,0.079,551
2019-11-21T11:37:06,42.805,6.029,CST-1368DR,7319,10258,15309,0.079,551
2019-11-21T11:40:07,42.805,6.029,CST-1368DR,7319,10258,15309,0.079,550
2019-11-21T11:43:09,42.805,6.029,CST-1368DR,7319,10257,15309,0.079,551
2019-11-21T11:46:11,42.805,6.029,CST-1368DR,7319,10257,15309,0.079,551
2019-11-21T11:49:13,42.805,6.029,CST-1368DR,7319,10257,15309,0.079,551
2019-11-21T11:52:14,42.805,6.029,CST-1368DR,7319,10258,15309,0.079,551
2019-11-21T11:55:16,42.805,6.029,CST-1368DR,7319,10258,15309,0.079,551
2019-11-21T11:58:18,42.805,6.029,CST-1368DR,7319,10258,15309,0.079,551
2019-11-21T12:01:19,42.805,6.029,CST-1368DR,7319,10258,15309,0.079,551
2019-11-21T12:04:21,42.805,6.029,CST-1368DR,7319,10258,15309,0.079,551
2019-11-21T12:07:23,42.805,6.029,CST-1368DR,7319,10256,15307,0.080,551
2019-11-21T12:10:25,42.805,6.029,CST-1368DR,7319,10257,15309,0.079,551
2019-11-21T12:13:26,42.805,6.029,CST-1368DR,7319,10257,15308,0.080,551
2019-11-21T12:16:28,42.805,6.029,CST-1368DR,7319,10257,15308,0.080,551
2019-11-21T12:19:30,42.805,6.029,CST-1368DR,7319,10257,15309,0.079,551
2019-11-21T12:22:31,42.805,6.029,CST-1368DR,7319,10257,15307,0.080,550
2019-11-21T12:25:33,42.805,6.029,CST-1368DR,7319,10257,15309,0.079,551
2019-11-21T12:28:35,42.805,6.029,CST-1368DR,7319,10254,15304,0.081,551
2019-11-21T12:31:36,42.805,6.029,CST-1368DR,7319,10258,15309,0.079,551
2019-11-21T12:34:38,42.805,6.029,CST-1368DR,7318,10257,15309,0.079,551
2019-11-21T12:37:40,42.805,6.029,CST-1368DR,7318,10257,15310,0.079,551
2019-11-21T12:40:41,42.805,6.029,CST-1368DR,7318,10255,15306,0.080,551
2019-11-21T12:43:43,42.805,6.029,CST-1368DR,7318,10257,15310,0.079,551
2019-11-21T12:46:44,42.805,6.029,CST-1368DR,7318,10257,15310,0.079,551
2019-11-21T12:49:46,42.805,6.029,CST-1368DR,7319,10258,15309,0.079,550
2019-11-21T12:52:48,42.805,6.029,CST-1368DR,7319,10257,15309,0.079,551
2019-11-21T12:55:49,42.805,6.029,CST-1368DR,7318,10258,15311,0.079,551
2019-11-21T12:58:51,42.805,6.029,CST-1368DR,7318,10257,15310,0.079,551
2019-11-21T13:01:53,42.805,6.029,CST-1368DR,7319,10257,15307,0.080,550
2019-11-21T13:04:54,42.805,6.029,CST-1368DR,7318,10257,15310,0.079,551
2019-11-21T13:07:56,42.805,6.029,CST-1368DR,7318,10257,15310,0.079,551
2019-11-21T13:10:57,42.805,6.029,CST-1368DR,7319,10257,15309,0.079,550
2019-11-21T13:13:59,42.805,6.029,CST-1368DR,7318,10257,15310,0.079,551
2019-11-21T13:17:01,42.805,6.029,CST-1368DR,7318,10257,15310,0.079,551
2019-11-21T13:20:02,42.805,6.029,CST-1368DR,7318,10257,15309,0.079,551
2019-11-21T13:23:04,42.805,6.029,CST-1368DR,7318,10257,15310,0.079,551
2019-11-21T13:26:06,42.805,6.029,CST-1368DR,7318,10256,15308,0.080,551
2019-11-21T13:29:07,42.805,6.029,CST-1368DR,7318,10257,15310,0.079,551
2019-11-21T13:32:09,42.805,6.029,CST-1368DR,7318,10256,15308,0.080,551
2019-11-21T13:35:11,42.805,6.029,CST-1368DR,7318,10256,15308,0.080,551
2019-11-21T13:38:12,42.805,6.029,CST-1368DR,7318,10257,15310,0.079,551
2019-11-21T13:41:14,42.805,6.029,CST-1368DR,7318,10256,15309,0.079,551
2019-11-21T13:44:15,42.805,6.029,CST-1368DR,7318,10257,15309,0.079,551
2019-11-21T13:47:17,42.805,6.029,CST-1368DR,7318,10257,15309,0.079,551
2019-11-21T13:50:19,42.805,6.029,CST-1368DR,7318,10255,15307,0.080,550
2019-11-21T13:53:20,42.805,6.029,CST-1368DR,7318,10256,15308,0.080,551
2019-11-21T13:56:22,42.805,6.029,CST-1368DR,7318,10256,15308,0.080,551
2019-11-21T13:59:25,42.805,6.029,CST-1368DR,7318,10256,15309,0.079,551
2019-11-21T14:02:26,42.805,6.029,CST-1368DR,7318,10252,15303,0.081,551
2019-11-21T14:05:28,42.805,6.029,CST-1368DR,7318,10255,15307,0.080,551
2019-11-21T14:08:29,42.805,6.029,CST-1368DR,7318,10257,15310,0.079,551
2019-11-21T14:11:31,42.805,6.029,CST-1368DR,7318,10257,15309,0.079,551
2019-11-21T14:14:33,42.805,6.029,CST-1368DR,7318,10256,15308,0.080,551
2019-11-21T14:17:34,42.805,6.029,CST-1368DR,7318,10256,15308,0.080,551
2019-11-21T14:20:36,42.805,6.029,CST-1368DR,7318,10257,15310,0.079,550
2019-11-21T14:23:38,42.805,6.029,CST-1368DR,7318,10256,15308,0.080,551
2019-11-21T14:26:39,42.805,6.029,CST-1368DR,7318,10257,15309,0.079,551
2019-11-21T14:29:41,42.805,6.029,CST-1368DR,7318,10256,15309,0.079,551
2019-11-21T14:32:42,42.805,6.029,CST-1368DR,7318,10256,15309,0.079,551
2019-11-21T14:35:44,42.805,6.029,CST-1368DR,7318,10256,15308,0.080,551
2019-11-21T14:38:46,42.805,6.029,CST-1368DR,7318,10257,15309,0.079,551
2019-11-21T14:41:48,42.805,6.029,CST-1368DR,7318,10256,15308,0.080,551
2019-11-21T14:44:49,42.805,6.029,CST-1368DR,7318,10257,15309,0.079,551
2019-11-21T14:47:51,42.805,6.029,CST-1368DR,7318,10257,15310,0.079,551
2019-11-21T14:50:52,42.805,6.029,CST-1368DR,7318,10254,15305,0.080,551
2019-11-21T14:53:54,42.805,6.029,CST-1368DR,7318,10256,15308,0.080,551
2019-11-21T14:56:56,42.805,6.029,CST-1368DR,7318,10256,15309,0.079,551
2019-11-21T14:59:57,42.805,6.029,CST-1368DR,7318,10257,15309,0.079,550
2019-11-21T15:02:59,42.805,6.029,CST-1368DR,7318,10257,15310,0.079,551
2019-11-21T15:06:01,42.805,6.029,CST-1368DR,7318,10255,15307,0.080,551
2019-11-21T15:09:02,42.805,6.029,CST-1368DR,7318,10256,15308,0.080,551
2019-11-21T15:12:04,42.805,6.029,CST-1368DR,7318,10257,15310,0.079,551
2019-11-21T15:15:06,42.805,6.029,CST-1368DR,7318,10257,15310,0.079,551
2019-11-21T15:18:07,42.805,6.029,CST-1368DR,7318,10256,15309,0.079,551
2019-11-21T15:21:09,42.805,6.029,CST-1368DR,7318,10256,15308,0.080,551
2019-11-21T15:24:11,42.805,6.029,CST-1368DR,7318,10256,15308,0.080,551
2019-11-21T15:27:12,42.805,6.029,CST-1368DR,7318,10256,15308,0.080,551
2019-11-21T15:30:14,42.805,6.029,CST-1368DR,7318,10255,15307,0.080,550
2019-11-21T15:33:16,42.805,6.029,CST-1368DR,7318,10257,15309,0.079,551
2019-11-21T15:36:17,42.805,6.029,CST-1368DR,7318,10255,15307,0.080,551
2019-11-21T15:39:19,42.805,6.029,CST-1368DR,7318,10254,15306,0.080,551
2019-11-21T15:42:21,42.805,6.029,CST-1368DR,7318,10256,15309,0.079,551
2019-11-21T15:45:22,42.805,6.029,CST-1368DR,7318,10256,15308,0.080,551
2019-11-21T15:48:24,42.805,6.029,CST-1368DR,7318,10256,15308,0.080,551
2019-11-21T15:51:26,42.805,6.029,CST-1368DR,7318,10255,15307,0.080,551
2019-11-21T15:54:27,42.805,6.029,CST-1368DR,7318,10256,15308,0.080,551
2019-11-21T15:57:29,42.805,6.029,CST-1368DR,7318,10256,15308,0.080,551
2019-11-21T16:00:31,42.805,6.029,CST-1368DR,7318,10255,15307,0.080,551
2019-11-21T16:03:32,42.805,6.029,CST-1368DR,7318,10256,15309,0.079,551
2019-11-21T16:06:34,42.805,6.029,CST-1368DR,7318,10255,15307,0.080,551
2019-11-21T16:09:35,42.805,6.029,CST-1368DR,7318,10256,15308,0.080,551
2019-11-21T16:12:37,42.805,6.029,CST-1368DR,7318,10255,15307,0.080,551
2019-11-21T16:15:39,42.805,6.029,CST-1368DR,7318,10257,15309,0.079,551
2019-11-21T16:18:40,42.805,6.029,CST-1368DR,7318,10255,15307,0.080,551
2019-11-21T16:21:42,42.805,6.029,CST-1368DR,7317,10255,15308,0.080,551
2019-11-21T16:24:44,42.805,6.029,CST-1368DR,7317,10256,15310,0.079,550
2019-11-21T16:27:45,42.805,6.029,CST-1368DR,7317,10255,15309,0.079,551
2019-11-21T16:30:47,42.805,6.029,CST-1368DR,7317,10254,15307,0.080,551
2019-11-21T16:33:49,42.805,6.029,CST-1368DR,7317,10255,15309,0.079,551
2019-11-21T16:36:50,42.805,6.029,CST-1368DR,7317,10255,15308,0.080,551